ATHENA-FIDUS

Last updated on Thu Oct 30 2025 00:02:49 GMT+0000 (Coordinated Universal Time)

1 39509U 14006B 25302.47853109 .00000164 00000+0 00000+0 0 9995 2 39509 0.0120 252.3022 0001720 328.7519 27.0943 1.00271796 42770
UTC large
Height (km)
Speed (km/s)
/
Latitude / Longitude
Inclination (degrees)
Orbital Period (minutes)
Azimuth
Elevation
Range (km)
Doppler Factor

Next 0 passes for location: London (51.5072 / 0.1276)

Sorry there are no passes over London.